When you browse on this site, cookies collect data to enhance your experience and personalize the content and advertising you see.
Visit our Privacy Policy to learn more. By continuing to use the site, you agree to this use of cookies and data.
  • En España
  • Lista de países
  • Para 7 días
  • Temperatura del agua
  • Mapa Satelital
  • El tiempo en el mapa
  • Informadores
  • user-avatar
    Iniciar sesión

    Tiempo cada hora Calgari

    Hoy, 25 Junio, Martes

    Tiempo Temperatura Precipitaciones Viento Presión Humedad
    00:00 +25°C° 0 mm 4 mps 761 mmHg 50%
    01:00 +25°C° 0 mm 4 mps 761 mmHg 52%
    02:00 +25°C° 0 mm 4 mps 761 mmHg 52%
    03:00 +25°C° 0 mm 3 mps 760 mmHg 53%
    04:00 +25°C° 0 mm 3 mps 760 mmHg 53%
    05:00 +26°C° 0 mm 3 mps 760 mmHg 50%
    06:00 +28°C° 0 mm 3 mps 761 mmHg 47%
    07:00 +29°C° 0 mm 3 mps 761 mmHg 43%
    08:00 +31°C° 0 mm 3 mps 761 mmHg 39%
    09:00 +33°C° 0 mm 4 mps 761 mmHg 35%
    10:00 +35°C° 0 mm 4 mps 762 mmHg 32%
    11:00 +36°C° 0 mm 4 mps 762 mmHg 32%
    12:00 +36°C° 0 mm 4 mps 762 mmHg 31%
    13:00 +37°C° 0 mm 5 mps 762 mmHg 31%
    14:00 +36°C° 0 mm 5 mps 762 mmHg 33%
    15:00 +36°C° 0 mm 5 mps 762 mmHg 35%
    16:00 +35°C° 0 mm 5 mps 761 mmHg 37%
    17:00 +34°C° 0 mm 5 mps 762 mmHg 42%
    18:00 +32°C° 0 mm 4 mps 762 mmHg 48%
    19:00 +30°C° 0 mm 4 mps 762 mmHg 54%
    20:00 +29°C° 0 mm 4 mps 762 mmHg 57%
    21:00 +27°C° 0 mm 4 mps 762 mmHg 60%
    22:00 +26°C° 0 mm 4 mps 762 mmHg 64%
    23:00 +26°C° 0 mm 4 mps 762 mmHg 62%

    Mañana, 26 Junio, Miércoles

    Tiempo Temperatura Precipitaciones Viento Presión Humedad
    00:00 +26°C° 0 mm 3 mps 762 mmHg 61%
    01:00 +26°C° 0 mm 3 mps 762 mmHg 59%
    02:00 +25°C° 0 mm 3 mps 762 mmHg 59%
    03:00 +25°C° 0 mm 3 mps 762 mmHg 59%
    04:00 +25°C° 0 mm 3 mps 762 mmHg 59%
    05:00 +26°C° 0 mm 3 mps 762 mmHg 57%
    06:00 +27°C° 0 mm 3 mps 763 mmHg 54%
    07:00 +28°C° 0 mm 3 mps 763 mmHg 52%
    08:00 +30°C° 0 mm 3 mps 763 mmHg 47%
    09:00 +33°C° 0 mm 3 mps 763 mmHg 43%
    10:00 +34°C° 0 mm 3 mps 763 mmHg 39%
    11:00 +35°C° 0 mm 3 mps 763 mmHg 38%
    12:00 +35°C° 0 mm 3 mps 763 mmHg 38%
    13:00 +35°C° 0 mm 4 mps 763 mmHg 38%
    14:00 +35°C° 0 mm 4 mps 763 mmHg 38%
    15:00 +35°C° 0 mm 4 mps 763 mmHg 39%
    16:00 +35°C° 0 mm 4 mps 762 mmHg 40%
    17:00 +33°C° 0 mm 3 mps 762 mmHg 44%
    18:00 +31°C° 0 mm 3 mps 762 mmHg 49%
    19:00 +30°C° 0 mm 3 mps 762 mmHg 53%
    20:00 +29°C° 0 mm 3 mps 762 mmHg 59%
    21:00 +27°C° 0 mm 3 mps 762 mmHg 65%
    22:00 +26°C° 0 mm 2 mps 762 mmHg 70%
    23:00 +26°C° 0 mm 2 mps 762 mmHg 70%

    Pasado mañana, 27 Junio, Jueves

    Tiempo Temperatura Precipitaciones Viento Presión Humedad
    00:00 +26°C° 0 mm 2 mps 762 mmHg 70%
    01:00 +25°C° 0 mm 2 mps 762 mmHg 70%
    02:00 +25°C° 0 mm 2 mps 762 mmHg 70%
    03:00 +25°C° 0 mm 2 mps 762 mmHg 70%
    04:00 +24°C° 0 mm 2 mps 762 mmHg 70%
    05:00 +26°C° 0 mm 1 mps 762 mmHg 64%
    06:00 +27°C° 0 mm 1 mps 762 mmHg 58%
    07:00 +29°C° 0 mm 1 mps 762 mmHg 52%
    08:00 +30°C° 0 mm 1 mps 762 mmHg 47%
    09:00 +32°C° 0 mm 1 mps 762 mmHg 41%
    10:00 +34°C° 0 mm 1 mps 762 mmHg 36%
    11:00 +35°C° 0 mm 2 mps 762 mmHg 36%
    12:00 +36°C° 0 mm 2 mps 762 mmHg 36%
    13:00 +36°C° 0 mm 3 mps 762 mmHg 35%
    14:00 +36°C° 0 mm 2 mps 761 mmHg 36%
    15:00 +36°C° 0 mm 2 mps 761 mmHg 37%
    16:00 +35°C° 0 mm 2 mps 761 mmHg 38%
    17:00 +34°C° 0 mm 2 mps 760 mmHg 41%
    18:00 +32°C° 0 mm 2 mps 760 mmHg 44%
    19:00 +31°C° 0 mm 1 mps 760 mmHg 47%
    20:00 +30°C° 0 mm 1 mps 760 mmHg 51%
    21:00 +28°C° 0 mm 1 mps 760 mmHg 54%
    22:00 +27°C° 0 mm 1 mps 760 mmHg 58%
    23:00 +27°C° 0 mm 2 mps 760 mmHg 58%

    28 Junio, Viernes

    Tiempo Temperatura Precipitaciones Viento Presión Humedad
    00:00 +27°C° 0 mm 2 mps 760 mmHg 59%
    01:00 +26°C° 0 mm 2 mps 760 mmHg 59%
    02:00 +26°C° 0 mm 2 mps 759 mmHg 59%
    03:00 +26°C° 0 mm 2 mps 759 mmHg 58%
    04:00 +26°C° 0 mm 2 mps 759 mmHg 58%
    05:00 +27°C° 0 mm 2 mps 759 mmHg 53%
    06:00 +29°C° 0 mm 2 mps 759 mmHg 49%
    07:00 +31°C° 0 mm 2 mps 759 mmHg 44%
    08:00 +34°C° 0 mm 2 mps 759 mmHg 38%
    09:00 +36°C° 0 mm 2 mps 759 mmHg 33%
    10:00 +38°C° 0 mm 2 mps 759 mmHg 28%
    11:00 +38°C° 0 mm 3 mps 759 mmHg 29%
    12:00 +38°C° 0 mm 4 mps 759 mmHg 30%
    13:00 +39°C° 0 mm 5 mps 759 mmHg 31%
    14:00 +39°C° 0 mm 5 mps 759 mmHg 30%
    15:00 +38°C° 0 mm 4 mps 758 mmHg 29%
    16:00 +38°C° 0 mm 4 mps 758 mmHg 28%
    17:00 +38°C° 0 mm 4 mps 758 mmHg 30%
    18:00 +37°C° 0 mm 4 mps 758 mmHg 31%
    19:00 +36°C° 0 mm 4 mps 758 mmHg 32%
    20:00 +34°C° 0 mm 4 mps 758 mmHg 38%
    21:00 +32°C° 0 mm 4 mps 758 mmHg 44%
    22:00 +29°C° 0 mm 4 mps 758 mmHg 49%
    23:00 +28°C° 0 mm 4 mps 758 mmHg 50%

    29 Junio, Sábado

    Tiempo Temperatura Precipitaciones Viento Presión Humedad
    00:00 +28°C° 0 mm 3 mps 758 mmHg 51%
    01:00 +28°C° 0 mm 3 mps 758 mmHg 52%
    02:00 +27°C° 0 mm 3 mps 757 mmHg 53%
    03:00 +27°C° 0 mm 3 mps 757 mmHg 54%
    04:00 +27°C° 0 mm 3 mps 757 mmHg 55%
    05:00 +28°C° 0 mm 3 mps 757 mmHg 53%
    06:00 +28°C° 0 mm 3 mps 758 mmHg 52%
    07:00 +29°C° 0 mm 3 mps 758 mmHg 50%
    08:00 +31°C° 0 mm 3 mps 758 mmHg 46%
    09:00 +34°C° 0 mm 3 mps 758 mmHg 42%
    10:00 +35°C° 0 mm 2 mps 759 mmHg 37%
    11:00 +36°C° 0 mm 3 mps 759 mmHg 37%
    12:00 +36°C° 0 mm 3 mps 759 mmHg 37%
    13:00 +36°C° 0 mm 4 mps 759 mmHg 38%
    14:00 +36°C° 0 mm 4 mps 758 mmHg 39%
    15:00 +35°C° 0 mm 3 mps 758 mmHg 41%
    16:00 +35°C° 0 mm 3 mps 758 mmHg 42%
    17:00 +33°C° 0 mm 3 mps 758 mmHg 47%
    18:00 +31°C° 0 mm 3 mps 758 mmHg 51%
    19:00 +30°C° 0 mm 2 mps 758 mmHg 56%
    20:00 +29°C° 0 mm 2 mps 759 mmHg 59%
    21:00 +28°C° 0 mm 2 mps 759 mmHg 63%
    22:00 +26°C° 0 mm 2 mps 759 mmHg 67%
    23:00 +26°C° 0 mm 2 mps 759 mmHg 67%

    30 Junio, Domingo

    Tiempo Temperatura Precipitaciones Viento Presión Humedad
    00:00 +26°C° 0 mm 1 mps 759 mmHg 66%
    01:00 +26°C° 0 mm 1 mps 759 mmHg 66%
    02:00 +25°C° 0 mm 1 mps 758 mmHg 65%
    03:00 +25°C° 0 mm 2 mps 758 mmHg 65%
    04:00 +25°C° 0 mm 2 mps 758 mmHg 64%
    05:00 +26°C° 0 mm 2 mps 759 mmHg 62%
    06:00 +27°C° 0 mm 3 mps 759 mmHg 59%
    07:00 +28°C° 0 mm 3 mps 759 mmHg 57%
    08:00 +30°C° 0 mm 3 mps 760 mmHg 50%
    09:00 +33°C° 0 mm 3 mps 760 mmHg 42%
    10:00 +34°C° 0 mm 4 mps 760 mmHg 35%
    11:00 +35°C° 0 mm 4 mps 760 mmHg 35%
    12:00 +35°C° 0 mm 4 mps 760 mmHg 34%
    13:00 +35°C° 0 mm 5 mps 760 mmHg 33%
    14:00 +35°C° 0 mm 5 mps 760 mmHg 34%
    15:00 +35°C° 0 mm 4 mps 760 mmHg 36%
    16:00 +34°C° 0 mm 4 mps 760 mmHg 37%
    17:00 +33°C° 0 mm 4 mps 760 mmHg 40%
    18:00 +31°C° 0 mm 3 mps 760 mmHg 42%
    19:00 +30°C° 0 mm 3 mps 760 mmHg 45%
    20:00 +29°C° 0 mm 3 mps 760 mmHg 49%
    21:00 +27°C° 0 mm 3 mps 760 mmHg 52%
    22:00 +26°C° 0 mm 2 mps 760 mmHg 56%
    23:00 +26°C° 0 mm 2 mps 760 mmHg 56%
    Mostrar más